Marfa, TX

1:32 AM CDT on August 25, 2016 (GMT -0500)
Marfa Municipal

Weather History for KMRF - July, 2014

Change the Weather History Date:

Friday, July 4, 2014

  Actual Average Record
Temperature  
Mean Temperature 72 °F -  
Max Temperature 87 °F 85 °F 98 °F (2005)
Min Temperature 57 °F 59 °F 53 °F (2013)
Cooling Degree Days 7    
Growing Degree Days 22 (Base 50)    
Moisture  
Dew Point 51 °F    
Average Humidity 48    
Maximum Humidity 82    
Minimum Humidity 25    
Precipitation  
Precipitation 0.00 in - - ()
Sea Level Pressure  
Sea Level Pressure 30.29 in    
Wind  
Wind Speed 9 mph (ESE)    
Max Wind Speed 18 mph    
Max Gust Speed 23 mph    
Visibility 10 miles    
Events      
Averages and records for this station are not official NWS values.
T = Trace of Precipitation, MM = Missing Value Source: NWS Daily Summary

Daily Weather History Graph

Daily Weather History Graph

Search for Another Location

Airport or City:

Trip Planner

Search our weather history database for the weather conditions in past years. The results will help you decide how hot, cold, wet, or windy it might be!

Date:

Astronomy

Jul. 04, 2014 Rise Set
Actual Time 6:58 AM CDT 9:01 PM CDT
Civil Twilight 6:31 AM CDT 9:29 PM CDT
Nautical Twilight 5:58 AM CDT 10:02 PM CDT
Astronomical Twilight 5:22 AM CDT 10:38 PM CDT
Moon 1:27 PM CDT (7/4) 12:53 AM CDT (7/4)
Length of Visible Light 14h 57m
Length of Day
14h 03m
Waxing Crescent, 42% of the Moon is Illuminated
Jul 4
Waxing Crescent
Jul 5
First Quarter
Jul 12
Full
Jul 18
Last Quarter
Jul 26
New

Hourly Weather History & Observations

Time (CDT) Temp. Heat Index Dew Point Humidity Pressure Visibility Wind Dir Wind Speed Gust Speed Precip Events Conditions
12:15 AM 71.6 °F - 51.8 °F 50% 30.28 in 10.0 mi ESE 10.4 mph - N/A   Clear
12:35 AM 71.6 °F - 51.8 °F 50% 30.29 in 10.0 mi ESE 11.5 mph - N/A   Clear
12:55 AM 69.8 °F - 51.8 °F 53% 30.29 in 10.0 mi East 9.2 mph - N/A   Clear
1:15 AM 69.8 °F - 51.8 °F 53% 30.30 in 10.0 mi East 6.9 mph - N/A   Clear
1:35 AM 68.0 °F - 51.8 °F 56% 30.30 in 10.0 mi East 4.6 mph - N/A   Clear
1:55 AM 68.0 °F - 51.8 °F 56% 30.29 in 10.0 mi ESE 5.8 mph - N/A   Clear
2:15 AM 66.2 °F - 51.8 °F 60% 30.30 in 10.0 mi East 4.6 mph - N/A   Clear
2:35 AM 66.2 °F - 51.8 °F 60% 30.30 in 10.0 mi ENE 4.6 mph - N/A   Clear
2:55 AM 64.4 °F - 51.8 °F 64% 30.29 in 10.0 mi ESE 5.8 mph - N/A   Clear
3:15 AM 66.2 °F - 51.8 °F 60% 30.29 in 10.0 mi ESE 6.9 mph - N/A   Clear
3:35 AM 64.4 °F - 51.8 °F 64% 30.29 in 10.0 mi East 5.8 mph - N/A   Clear
3:55 AM 64.4 °F - 51.8 °F 64% 30.29 in 10.0 mi East 3.5 mph - N/A   Clear
4:15 AM 62.6 °F - 51.8 °F 68% 30.29 in 10.0 mi East 4.6 mph - N/A   Clear
4:35 AM 60.8 °F - 51.8 °F 72% 30.29 in 10.0 mi Calm Calm - N/A   Clear
4:55 AM 60.8 °F - 51.8 °F 72% 30.29 in 10.0 mi ENE 6.9 mph - N/A   Clear
5:15 AM 59.0 °F - 51.8 °F 77% 30.29 in 10.0 mi ENE 6.9 mph - N/A   Clear
5:35 AM 60.8 °F - 51.8 °F 72% 30.29 in 10.0 mi ENE 6.9 mph - N/A   Clear
5:55 AM 60.8 °F - 51.8 °F 72% 30.29 in 10.0 mi NE 5.8 mph - N/A   Clear
6:15 AM 57.2 °F - 51.8 °F 82% 30.30 in 10.0 mi North 3.5 mph - N/A   Clear
6:35 AM 57.2 °F - 51.8 °F 82% 30.30 in 10.0 mi North 5.8 mph - N/A   Clear
6:55 AM 57.2 °F - 51.8 °F 82% 30.31 in 10.0 mi NE 4.6 mph - N/A   Clear
7:15 AM 57.2 °F - 51.8 °F 82% 30.32 in 10.0 mi NE 5.8 mph - N/A   Clear
7:35 AM 59.0 °F - 51.8 °F 77% 30.32 in 10.0 mi NNE 5.8 mph - N/A   Clear
7:55 AM 62.6 °F - 53.6 °F 72% 30.32 in 8.0 mi ENE 3.5 mph - N/A   Clear
8:15 AM 66.2 °F - 53.6 °F 64% 30.33 in 10.0 mi Calm Calm - N/A   Clear
8:35 AM 68.0 °F - 53.6 °F 60% 30.33 in 6.0 mi ESE 5.8 mph - N/A   Clear
8:55 AM 69.8 °F - 55.4 °F 60% 30.34 in 2.5 mi SE 10.4 mph - N/A   Clear
9:15 AM 71.6 °F - 53.6 °F 53% 30.34 in 10.0 mi SE 11.5 mph - N/A   Clear
9:35 AM 73.4 °F - 53.6 °F 50% 30.34 in 10.0 mi SE 6.9 mph 17.3 mph N/A   Clear
9:55 AM 73.4 °F - 53.6 °F 50% 30.34 in 10.0 mi SE 10.4 mph - N/A   Clear
10:15 AM 75.2 °F - 53.6 °F 47% 30.34 in 10.0 mi SSE 9.2 mph - N/A   Clear
10:35 AM 75.2 °F - 53.6 °F 47% 30.34 in 10.0 mi SE 6.9 mph - N/A   Clear
10:55 AM 75.2 °F - 53.6 °F 47% 30.34 in 10.0 mi SSE 9.2 mph - N/A   Clear
11:15 AM 77.0 °F - 53.6 °F 44% 30.34 in 10.0 mi South 9.2 mph - N/A   Clear
11:35 AM 77.0 °F - 53.6 °F 44% 30.34 in 10.0 mi SSE 11.5 mph 17.3 mph N/A   Clear
11:55 AM 78.8 °F - 53.6 °F 42% 30.33 in 10.0 mi SSE 15.0 mph 18.4 mph N/A   Clear
12:15 PM 78.8 °F - 53.6 °F 42% 30.34 in 10.0 mi SSE 6.9 mph 16.1 mph N/A   Clear
12:35 PM 78.8 °F - 53.6 °F 42% 30.33 in 10.0 mi SSE 9.2 mph 17.3 mph N/A   Clear
12:55 PM 80.6 °F - 51.8 °F 37% 30.33 in 10.0 mi SE 11.5 mph - N/A   Scattered Clouds
1:15 PM 80.6 °F - 51.8 °F 37% 30.32 in 10.0 mi SSW 8.1 mph - N/A   Scattered Clouds
1:35 PM 80.6 °F 80.3 °F 53.6 °F 39% 30.32 in 10.0 mi SSE 9.2 mph 17.3 mph N/A   Partly Cloudy
1:55 PM 82.4 °F - 51.8 °F 35% 30.31 in 10.0 mi South 4.6 mph 18.4 mph N/A   Clear
2:15 PM 82.4 °F - 51.8 °F 35% 30.30 in 10.0 mi SE 11.5 mph - N/A   Scattered Clouds
2:35 PM 84.2 °F - 51.8 °F 33% 30.30 in 10.0 mi South 8.1 mph - N/A   Partly Cloudy
2:55 PM 82.4 °F - 50.0 °F 32% 30.29 in 10.0 mi SE 8.1 mph 17.3 mph N/A   Scattered Clouds
3:15 PM 84.2 °F - 51.8 °F 33% 30.29 in 10.0 mi SSE 9.2 mph - N/A   Mostly Cloudy
3:35 PM 84.2 °F - 50.0 °F 30% 30.28 in 10.0 mi SSE 11.5 mph 18.4 mph N/A   Mostly Cloudy
3:55 PM 87.8 °F - 50.0 °F 27% 30.28 in 10.0 mi East 9.2 mph 16.1 mph N/A   Scattered Clouds
4:15 PM 86.0 °F - 48.2 °F 27% 30.28 in 10.0 mi ESE 10.4 mph 17.3 mph N/A   Partly Cloudy
4:35 PM 84.2 °F - 48.2 °F 29% 30.27 in 10.0 mi SE 12.7 mph 16.1 mph N/A   Clear
4:55 PM 84.2 °F - 48.2 °F 29% 30.26 in 10.0 mi SE 11.5 mph 19.6 mph N/A   Clear
5:15 PM 86.0 °F - 48.2 °F 27% 30.26 in 10.0 mi SSE 8.1 mph 20.7 mph N/A   Scattered Clouds
5:35 PM 86.0 °F - 48.2 °F 27% 30.25 in 10.0 mi East 10.4 mph 20.7 mph N/A   Scattered Clouds
5:55 PM 84.2 °F - 48.2 °F 29% 30.25 in 10.0 mi SE 9.2 mph - N/A   Partly Cloudy
6:15 PM 84.2 °F - 48.2 °F 29% 30.24 in 10.0 mi ESE 16.1 mph 20.7 mph N/A   Clear
6:35 PM 84.2 °F - 46.4 °F 27% 30.24 in 10.0 mi ESE 10.4 mph 20.7 mph N/A   Partly Cloudy
6:55 PM 84.2 °F - 46.4 °F 27% 30.23 in 10.0 mi SE 10.4 mph 18.4 mph N/A   Partly Cloudy
7:15 PM 84.2 °F - 44.6 °F 25% 30.23 in 10.0 mi SSE 12.7 mph 20.7 mph N/A   Clear
7:35 PM 84.2 °F - 48.2 °F 29% 30.23 in 10.0 mi ESE 18.4 mph - N/A   Clear
7:55 PM 82.4 °F - 48.2 °F 30% 30.23 in 10.0 mi ESE 11.5 mph 19.6 mph N/A   Clear
8:15 PM 80.6 °F - 48.2 °F 32% 30.23 in 10.0 mi ESE 16.1 mph 21.9 mph N/A   Clear
8:55 PM 78.8 °F - 48.2 °F 34% 30.24 in 10.0 mi East 15.0 mph 19.6 mph N/A   Clear
9:15 PM 78.8 °F - 50.0 °F 36% 30.25 in 10.0 mi East 16.1 mph 23.0 mph N/A   Clear
9:35 PM 77.0 °F - 50.0 °F 39% 30.26 in 10.0 mi East 12.7 mph - N/A   Clear
9:55 PM 75.2 °F - 50.0 °F 41% 30.26 in 10.0 mi ESE 13.8 mph 19.6 mph N/A   Clear
10:15 PM 73.4 °F - 51.8 °F 47% 30.26 in 10.0 mi East 12.7 mph - N/A   Clear
10:35 PM 73.4 °F - 51.8 °F 47% 30.27 in 10.0 mi East 13.8 mph 19.6 mph N/A   Clear
10:55 PM 73.4 °F - 51.8 °F 47% 30.28 in 10.0 mi East 12.7 mph 18.4 mph N/A   Clear
11:15 PM 73.4 °F - 51.8 °F 47% 30.28 in 10.0 mi East 16.1 mph - N/A   Clear
11:35 PM 71.6 °F - 51.8 °F 50% 30.29 in 10.0 mi East 16.1 mph 20.7 mph N/A   Clear
11:55 PM 71.6 °F - 51.8 °F 50% 30.29 in 10.0 mi ESE 15.0 mph - N/A   Clear